STARLINK-3784, 52275

Orbit data source: Space-Track

STARLINK-3784, 52275 is a payload satellite owned by SpaceX/Seattle (US) in LEO that was launched on Thu, 21 Apr 2022 UTC via an FALCON 9 launch vehicle from the Air Force Eastern Test Range (AFETR). Payload-class satellites include a variety of spacecraft equipped with specific instruments for various scientific and technological missions. These include communications satellites like Starlink; space stations such as the ISS; scientific satellites like the Hubble; Earth observation satellites from companies like Planet Labs, Umbra, and HawkEye 360; GPS; miniature CubeSats for education and research; and military/defense satellites.

Loading next visibility...
Identifier
52275, 2022-041Q
Orbit
LEO
Country
Flag of USUS
Related business
Manufacturer
SpaceX/Seattle
Mission
Operational Commercial Communications
Bus & Motor
STARLINK, Unknown motor
Mass
297 kg wet, ~275 kg dry
Launch date (UTC)
2022-04-21 (4 years ago)
Launch vehicle
FALCON 9
Launch site
Air Force Eastern Test Range (AFETR)
Object type
Payload
Rocket body
Debris
Shape & HBR
Box + 1 Pan, 10.1 m
Radar Cross Section
11.087 m², Large (>1 m²)

Expand to show TLE details & history
Last TLE update: 12 hours ago

TLE from 12 hours ago
0 STARLINK-3784
1 52275U 22041Q   26236.66668981  .01117589  00000-0  34346-1 0  9992
2 52275  53.1587  73.0163 0001587  81.6405 340.0778 15.30704739  5707
Epoch: 2026-08-24T16:00Z
TLE epoch observation values (Epoch: 2026-08-24T16:00:01.999Z)
Latitude
44.94851°
Longitude
-91.8862°
Altitude
477.358 km
Speed
7.633 km/s
True Right ascension
08h 04m 16s
True Declination
44° 46' 10"
Sunlit
Object was in daylight at epoch
Visualization orbit readout
Latitude
Unknown
Longitude
Unknown
Altitude
Unknown
Speed
Unknown
Apparent Right ascension
Unknown
Apparent Declination
Unknown
Sunlit
N/A
Visualization observer readout
Local Sidereal Time
19:31:31
Azimuth
Unknown
Elevation
Unknown
Doppler factor
Unknown
Orbital elements
Apogee altitude
475.053 km
Perigee altitude
472.878 km
Semi-major axis
6,852.102 km
Eccentricity
0.00016
Inclination
53.1587°
RAAN
73.0163°
Arg. of periapsis
81.6405°
True anomaly
340.0716°
Mean anomaly
340.0778°
Eccentric anomaly
340.0747°
Mean motion
3.82655 °/min
Orbital period
94.08 mins
BSTAR
0.034346
Loading maneuver chart data...
Computing Atmospheric mass density...
Loading historical data...
Loading historical data...
Loading historical data...
Loading historical data...
Loading historical data...
Loading historical data...
Loading historical data...

Documentation

Showing up to 5 results
|